sat.trackr.live / text

‹ back to catalog

ECHOSTAR 17

NORAD 38551 · 2012-035A

PAYLOAD ACTIVE UNKNOWN

§ Identity

Operator
Country
US
Launch date
2012-07-05
Launch site
FRGUI
Launch vehicle
Mass (kg)
RCS (m²)
12.59

Purposes: comms

External: N2YO · Heavens-Above · Gunter

§ Orbital elements

Epoch: 2026-05-25T03:34:38.682912Z

Period
1,436.13 min
Inclination
0.0175°
Eccentricity
0.0002133
Mean motion
1.00269296 rev/d
Perigee alt
35,778.3 km
Apogee alt
35,796.3 km
Semi-major
42,165.4 km
B*
0.0000e+0
RAAN
311.9204°
Arg perigee
116.4688°
Mean anomaly
120.9102°
Rev number
5,083

§ Raw data

ECHOSTAR 171 38551U 12035A   26145.14905883  .00000000  00000+0  00000+0 0  99972 38551   0.0175 311.9204 0002133 116.4688 120.9102  1.00269296 50836

JSON: /api/v1/satellites/38551 · /tle

For live sub-satellite position, see the globe view (requires WebGL).

§ Visibility from observer

Set your observer location to see the next 7 days of passes ≥ 10°. The values pass through the URL so the page stays shareable.

No JS? Fill the form by hand. The geolocation button needs JavaScript.